Owensboro, KY

8:11 PM CDT on July 23, 2017 (GMT -0500)
Owensboro-Daviess County

Weather History for KOWB - May, 2013

Change the Weather History Date:

Thursday, May 2, 2013

  Actual Average Record
Temperature  
Mean Temperature 71 °F -  
Max Temperature 79 °F 72 °F 92 °F (1952)
Min Temperature 63 °F 50 °F 34 °F (1963)
Cooling Degree Days 6    
Growing Degree Days 21 (Base 50)    
Moisture  
Dew Point 60 °F    
Average Humidity 69    
Maximum Humidity 93    
Minimum Humidity 49    
Precipitation  
Precipitation 0.00 in - - ()
Sea Level Pressure  
Sea Level Pressure 30.10 in    
Wind  
Wind Speed 5 mph (SSE)    
Max Wind Speed 13 mph    
Max Gust Speed -    
Visibility 10 miles    
Events      
Averages and records for this station are not official NWS values.
T = Trace of Precipitation, MM = Missing Value Source: NWS Daily Summary

Daily Weather History Graph

Daily Weather History Graph

Search for Another Location

Airport or City:

Trip Planner

Search our weather history database for the weather conditions in past years. The results will help you decide how hot, cold, wet, or windy it might be!

Date:

Astronomy

May. 02, 2013 Rise Set
Actual Time 5:51 AM CDT 7:40 PM CDT
Civil Twilight 5:23 AM CDT 8:08 PM CDT
Nautical Twilight 4:49 AM CDT 8:43 PM CDT
Astronomical Twilight 4:12 AM CDT 9:19 PM CDT
Moon 1:30 AM CDT (5/2) 12:37 PM CDT (5/2)
Length of Visible Light 14h 45m
Length of Day
13h 48m
Waning Gibbous, 47% of the Moon is Illuminated
May 2
Waning Gibbous
May 9
New
May 17
First Quarter
May 24
Full
May 31
Last Quarter

Hourly Weather History & Observations

Time (CDT) Temp. Dew Point Humidity Pressure Visibility Wind Dir Wind Speed Gust Speed Precip Events Conditions
12:56 AM 65.8 °F 59.0 °F 79% 30.08 in 10.0 mi Calm Calm - N/A   Clear
1:56 AM 64.9 °F 59.0 °F 81% 30.08 in 10.0 mi Calm Calm - N/A   Clear
2:56 AM 64.9 °F 59.0 °F 81% 30.08 in 10.0 mi East 5.8 mph - N/A   Clear
3:56 AM 64.9 °F 59.0 °F 81% 30.07 in 10.0 mi SE 4.6 mph - N/A   Clear
4:56 AM 63.9 °F 59.9 °F 87% 30.08 in 10.0 mi SSE 8.1 mph - N/A   Scattered Clouds
5:56 AM 63.0 °F 59.9 °F 90% 30.12 in 10.0 mi South 8.1 mph - N/A   Clear
6:56 AM 63.0 °F 61.0 °F 93% 30.14 in 10.0 mi South 4.6 mph - N/A   Scattered Clouds
7:56 AM 65.8 °F 61.9 °F 87% 30.17 in 10.0 mi Calm Calm - N/A   Scattered Clouds
8:56 AM 68.9 °F 61.0 °F 76% 30.17 in 10.0 mi South 4.6 mph - N/A   Scattered Clouds
9:56 AM 72.9 °F 59.9 °F 64% 30.16 in 10.0 mi SSW 8.1 mph - N/A   Partly Cloudy
10:56 AM 73.9 °F 59.9 °F 61% 30.16 in 10.0 mi SW 10.4 mph - N/A   Scattered Clouds
11:56 AM 75.9 °F 59.0 °F 56% 30.16 in 10.0 mi SSW 9.2 mph - N/A   Mostly Cloudy
12:56 PM 74.8 °F 59.9 °F 60% 30.14 in 10.0 mi South 8.1 mph - N/A   Mostly Cloudy
1:56 PM 77.9 °F 59.9 °F 54% 30.12 in 10.0 mi SSE 6.9 mph - N/A   Scattered Clouds
2:56 PM 79.9 °F 59.9 °F 50% 30.09 in 10.0 mi SSE 6.9 mph - N/A   Mostly Cloudy
3:56 PM 79.9 °F 59.0 °F 49% 30.06 in 10.0 mi South 4.6 mph - N/A   Scattered Clouds
4:56 PM 77.0 °F 59.9 °F 55% 30.05 in 10.0 mi SE 11.5 mph - N/A   Scattered Clouds
5:56 PM 75.9 °F 55.9 °F 50% 30.05 in 10.0 mi SSE 12.7 mph - N/A   Mostly Cloudy
6:56 PM 73.9 °F 59.0 °F 59% 30.05 in 10.0 mi South 6.9 mph - N/A   Partly Cloudy
7:56 PM 72.0 °F 57.9 °F 61% 30.06 in 10.0 mi SSE 6.9 mph - N/A   Clear
8:56 PM 70.0 °F 59.0 °F 68% 30.06 in 10.0 mi SSE 6.9 mph - N/A   Clear
9:56 PM 68.9 °F 59.9 °F 73% 30.06 in 10.0 mi SE 5.8 mph - N/A   Clear
10:56 PM 68.9 °F 59.9 °F 73% 30.05 in 10.0 mi SSE 4.6 mph - N/A   Scattered Clouds
11:56 PM 66.9 °F 59.9 °F 78% 30.04 in 10.0 mi SSE 4.6 mph - N/A   Mostly Cloudy